Theta_e
306 304 304 304 302 305 304 306 307 305 304 306 304 304 305 307 305 303 305 307 307 307 306 307 308 308 308 308 308 308 307 304 302 301 299 299 298 302 302 301 301 302 302 302
305 304 303 302 303 304 305 305 303 303 304 305 304 306 306 304 305 305 306 306 307 306 306 306 307 307 307 308 308 307 305 303 302 300 298 299 302 303 301 302 302 303 303 303
303 305 303 304 304 304 305 304 304 305 305 304 303 307 309 307 305 306 306 306 306 307 306 306 307 307 307 308 308 306 303 303 302 299 299 302 303 301 302 303 303 304 303 305
304 304 305 305 305 304 306 304 305 306 306 306 304 308 306 307 305 303 305 306 306 306 306 306 307 307 307 308 307 304 304 303 300 298 301 303 303 301 302 303 304 305 306 306
305 305 305 306 305 304 304 304 305 305 305 306 305 306 307 306 310 308 303 305 306 306 306 306 307 307 308 307 305 304 304 302 300 299 302 303 303 302 303 304 304 305 306 306
304 304 305 305 303 304 303 305 304 304 305 304 306 305 308 310 310 307 304 305 306 306 306 306 307 307 307 306 305 305 304 301 299 300 302 304 303 303 304 305 304 305 306 307
305 305 304 304 305 304 304 304 301 304 302 307 303 306 308 308 307 305 305 305 305 306 307 307 307 307 306 305 305 305 303 301 299 301 302 304 304 304 306 305 306 305 306 307
308 306 304 303 304 306 304 303 305 303 307 309 303 308 311 307 305 306 306 305 305 305 306 307 307 306 306 306 306 305 303 301 299 301 303 304 305 304 305 305 306 306 307 307
305 306 302 303 303 303 305 305 303 301 293 304 308 308 308 306 305 304 303 303 305 305 306 306 306 306 306 306 306 304 303 301 299 301 303 304 306 306 306 306 307 307 307 308
303 303 301 302 303 302 303 302 307 303 303 306 306 308 311 309 308 304 304 302 304 305 305 305 307 307 307 306 305 305 304 301 299 301 303 304 307 307 307 307 307 308 308 308
300 304 302 302 304 306 305 305 303 305 305 306 306 310 306 310 308 305 302 303 303 305 305 305 307 307 307 306 306 305 304 301 299 302 303 305 307 307 308 308 308 309 309 309
304 303 300 303 300 300 302 304 305 310 304 301 304 308 306 309 304 304 305 306 306 304 305 305 306 307 307 306 306 306 305 302 299 302 303 305 308 308 308 309 310 310 311 310
304 301 298 301 302 301 303 302 303 305 305 302 307 308 306 307 306 307 308 309 308 306 304 304 305 306 307 306 306 305 305 302 300 303 304 307 308 308 310 310 311 311 311 311
304 299 301 304 305 302 301 302 302 304 300 303 305 304 307 307 306 306 307 311 309 309 308 305 303 305 306 306 305 305 305 304 300 303 304 307 308 309 310 311 311 310 311 312
304 302 296 297 303 304 305 301 301 301 304 306 305 303 306 306 305 305 308 309 307 309 309 308 306 304 305 306 305 305 304 304 301 303 306 307 309 310 311 311 311 310 312 312
301 302 298 302 299 301 303 303 302 301 300 301 301 304 305 305 306 305 306 306 308 308 308 308 309 305 304 305 305 305 304 304 301 304 308 309 309 312 312 311 311 311 313 313
303 301 300 301 296 299 304 302 303 302 301 302 303 307 305 305 304 305 307 307 307 308 308 308 308 309 308 305 305 305 305 304 302 303 309 310 312 312 312 311 311 311 312 314
305 305 306 302 302 307 305 303 303 303 303 302 302 303 304 304 305 306 308 308 309 309 310 310 309 309 309 309 305 305 304 304 303 303 310 310 313 313 312 311 312 312 313 315
305 305 303 305 300 303 306 305 303 306 308 305 303 303 303 304 304 306 307 308 309 308 309 310 310 309 309 309 307 305 304 304 304 302 309 310 313 313 313 312 311 312 314 314
305 305 302 296 299 302 302 305 303 303 307 306 305 304 304 306 307 305 308 310 311 312 311 310 310 309 309 309 309 305 304 304 306 302 308 310 314 314 313 311 312 313 313 315
305 305 306 298 301 301 300 301 304 304 306 307 306 306 306 305 305 306 308 310 311 312 313 312 308 309 309 309 308 305 304 305 306 302 307 310 314 314 314 312 312 314 316 316
302 304 304 304 306 306 304 304 304 304 305 306 306 305 305 305 305 306 306 307 308 309 310 312 312 307 308 308 308 306 304 305 305 302 306 310 313 314 314 314 313 316 316 316
301 299 298 300 302 301 303 304 306 306 305 304 301 300 301 301 301 302 304 305 306 307 309 310 312 309 306 307 307 307 304 304 303 302 305 310 313 314 315 315 316 315 316 316
297 298 297 299 301 301 303 304 306 306 303 301 298 298 298 299 300 300 300 302 303 305 307 308 309 312 304 304 306 305 304 303 302 301 303 309 312 313 314 314 315 316 316 315
297 298 294 296 299 301 302 304 303 304 304 300 299 298 298 298 297 298 299 299 299 299 302 306 308 311 308 303 304 306 304 302 301 300 302 307 310 313 314 314 314 315 315 315
295 295 299 300 302 302 301 300 300 302 301 300 300 300 299 298 297 297 297 297 298 299 301 304 307 309 311 306 303 303 303 302 301 300 301 305 310 311 313 313 313 312 313 313
Wind_Speed
2 3 7 9 5 2 4 2 2 3 1 3 5 13 17 21 13 14 13 8 8 10 13 13 15 14 14 13 12 9 7 7 8 10 13 13 11 10 10 10 8 6 7 6
4 7 4 4 4 3 1 1 5 4 1 1 5 19 15 6 5 3 3 4 4 4 14 14 15 15 14 12 11 7 6 5 7 10 11 10 9 8 7 7 7 7 8 5
6 2 4 5 3 4 3 4 3 4 4 1 6 9 5 3 4 5 5 3 3 4 11 17 17 17 15 12 8 6 5 6 8 9 9 8 6 6 5 5 5 6 7 6
5 2 4 3 4 5 2 3 2 0 2 3 3 4 5 5 8 5 7 8 5 6 12 16 17 17 15 12 8 7 4 7 6 8 8 5 5 3 4 4 6 8 7 5
5 4 4 3 3 6 4 2 3 2 3 2 1 3 8 4 6 4 7 12 8 7 10 15 16 16 14 11 9 7 5 5 5 7 5 3 2 2 2 2 2 5 6 5
0 1 1 2 2 2 6 4 6 4 2 2 2 4 8 4 4 1 1 11 10 10 13 15 16 16 14 11 9 6 6 4 4 5 3 1 1 1 2 2 0 4 5 4
0 2 0 2 5 4 3 5 3 4 3 5 3 2 11 5 5 3 2 9 12 12 16 18 19 17 14 11 9 6 5 4 3 3 2 2 2 3 3 1 1 2 4 2
6 4 6 2 2 4 5 4 5 6 3 3 2 6 6 5 2 9 8 2 12 15 17 17 16 14 12 10 8 7 5 5 3 3 2 3 3 3 2 1 1 3 3 3
5 2 2 3 2 2 4 3 2 6 1 3 3 7 10 2 5 10 5 4 11 16 18 17 16 14 12 9 7 7 6 5 3 3 3 5 4 3 2 2 1 2 4 4
5 3 2 1 2 3 3 2 3 2 1 3 4 5 6 7 8 9 5 5 6 14 17 18 16 15 12 10 9 8 7 6 3 4 4 6 6 5 3 2 2 3 4 4
4 3 3 0 5 7 3 2 2 2 3 4 1 5 6 3 4 6 7 9 6 9 15 17 17 15 14 12 10 9 8 6 4 5 6 7 8 6 5 4 4 4 5 4
5 4 3 5 1 1 1 2 5 3 5 0 2 5 4 4 4 8 12 15 10 5 10 15 18 18 18 14 11 9 9 7 5 6 8 9 9 7 5 4 4 3 5 5
6 1 3 6 3 2 4 4 3 3 2 6 5 5 4 1 5 12 14 21 18 16 9 13 18 20 19 17 14 11 9 8 6 7 10 11 10 7 5 4 3 2 3 7
5 3 5 6 4 4 3 3 4 3 3 4 6 5 12 4 6 13 27 28 26 27 16 12 18 21 21 19 17 14 11 10 7 9 11 12 11 8 5 3 4 6 6 6
4 4 2 1 2 2 3 5 7 7 6 5 2 6 7 8 7 21 27 31 28 28 23 16 15 20 21 21 20 18 14 12 9 11 13 13 12 8 5 5 5 8 10 12
3 2 2 3 2 1 4 8 8 7 2 7 6 18 8 22 26 27 26 23 28 27 24 20 14 16 21 21 22 19 16 13 11 12 14 14 12 7 7 8 7 15 16 16
3 5 3 3 2 1 7 8 13 5 3 6 6 10 6 7 5 5 12 22 22 22 21 19 17 13 16 20 21 21 18 16 14 15 17 16 13 10 10 11 13 17 18 17
4 3 2 3 1 1 4 2 5 7 6 8 9 12 12 12 11 10 8 15 19 21 17 15 16 15 13 16 21 22 21 18 17 17 19 18 17 13 13 14 17 17 16 15
3 3 2 4 3 5 4 2 6 6 2 2 5 6 8 5 0 6 18 18 16 22 18 14 15 14 13 14 20 25 25 22 21 21 22 21 20 17 16 19 19 18 15 15
6 1 3 2 5 6 6 0 1 2 1 1 1 4 5 11 4 3 18 19 21 23 27 20 14 13 11 12 17 26 28 25 24 23 24 23 22 18 18 21 20 17 15 12
7 3 11 4 3 5 7 4 1 4 4 4 7 6 9 4 1 8 16 19 20 23 26 28 20 14 11 10 16 26 29 29 21 22 26 26 24 21 19 21 19 17 17 16
9 7 5 5 4 8 7 4 6 3 4 6 8 8 9 9 11 15 16 20 23 24 26 25 27 20 14 9 12 22 29 26 24 25 29 29 28 24 24 24 22 17 20 20
4 6 5 7 6 3 4 9 6 6 9 10 12 12 12 14 16 17 20 22 22 22 24 27 25 24 18 12 8 16 25 26 27 28 31 32 31 28 25 24 26 25 22 22
3 4 3 4 5 4 9 7 10 12 16 12 11 12 14 16 16 18 20 22 23 23 24 23 24 23 17 15 10 10 18 24 28 30 32 34 34 31 28 25 28 26 26 24
4 8 6 3 4 3 6 10 10 12 9 6 5 11 14 15 17 17 19 21 23 24 23 23 21 19 18 13 15 9 13 21 28 32 33 36 36 34 32 31 28 27 27 24
5 6 4 4 10 6 2 13 10 10 8 5 4 9 14 19 19 20 23 23 23 25 25 22 21 20 18 13 11 14 11 17 26 32 35 39 38 37 34 34 33 31 30 26
Wind_Direction
114 122 212 200 195 93 117 164 249 264 301 295 243 281 287 289 269 276 287 300 289 250 202 197 193 194 199 202 207 215 246 271 294 308 313 320 327 336 343 353 5 353 338 322
53 235 192 135 171 203 104 317 274 269 225 213 336 292 278 292 246 230 290 309 309 207 193 191 193 190 192 202 201 218 250 276 301 312 322 336 338 346 5 12 359 355 345 54
171 166 92 141 146 149 203 202 217 237 323 183 321 291 324 275 276 248 239 253 244 197 190 189 186 181 188 193 203 232 255 286 301 321 338 344 344 360 16 19 16 28 49 45
241 294 143 157 195 147 253 212 178 159 52 253 2 283 290 304 297 252 229 218 213 190 185 186 183 182 186 190 210 231 247 279 312 327 355 344 6 9 40 23 27 45 73 54
232 168 162 157 220 172 221 76 106 71 105 4 320 108 272 337 298 260 221 211 197 178 184 188 184 183 188 195 217 223 247 277 327 343 343 6 5 41 68 31 28 67 84 70
219 304 142 138 77 45 149 76 48 50 68 40 312 141 283 238 231 226 142 203 190 174 171 176 179 186 192 202 217 218 246 280 323 351 314 13 191 146 130 111 102 90 84 79
295 209 70 134 87 31 78 74 337 354 5 217 343 88 246 282 262 249 119 200 188 179 176 178 184 190 197 202 218 220 247 267 303 317 279 209 191 167 146 124 93 117 100 84
160 279 174 154 138 181 177 164 162 211 209 253 28 225 249 213 318 251 268 191 192 189 186 186 190 195 201 198 213 224 247 256 268 272 231 200 195 178 167 232 178 191 185 161
140 259 317 42 82 86 194 197 148 103 37 52 231 283 297 257 298 277 292 216 211 201 198 195 194 195 198 202 209 225 234 246 248 251 228 196 196 177 164 232 197 200 201 197
202 89 340 357 138 67 163 147 91 353 188 253 298 287 238 346 338 347 312 295 247 205 202 202 199 195 195 202 212 227 227 237 240 234 220 192 199 180 185 190 212 191 199 202
138 114 300 105 213 171 136 195 51 156 146 174 183 260 209 313 349 358 354 331 305 220 210 209 208 203 202 207 219 229 227 231 230 230 200 196 191 193 195 202 225 220 214 185
188 122 147 208 315 341 351 224 164 158 238 111 145 276 187 211 102 57 25 15 355 290 230 223 221 215 214 214 220 227 231 225 228 217 186 202 189 203 200 205 218 207 198 200
186 211 67 354 4 9 218 201 184 103 88 197 154 250 234 183 49 23 28 10 9 360 271 231 228 227 228 226 223 225 226 222 230 210 190 196 204 206 214 216 206 232 248 206
123 103 155 184 170 130 175 196 201 154 133 184 223 272 304 293 1 343 343 338 329 323 319 268 237 233 231 231 230 227 222 220 218 207 200 187 209 205 219 193 182 194 202 180
132 171 137 279 73 137 179 172 185 188 206 209 231 223 246 285 310 303 312 313 322 327 335 304 267 244 238 232 228 225 220 221 210 205 202 185 204 207 192 169 187 200 167 146
26 155 117 342 1 154 238 224 207 218 217 258 276 273 253 260 268 278 306 312 317 325 331 328 317 265 244 238 233 229 223 221 212 200 198 191 194 190 173 167 161 155 143 138
110 140 101 258 318 0 302 219 206 174 181 176 206 254 265 259 265 308 331 317 320 325 323 320 310 294 272 249 235 228 221 214 214 197 199 196 180 183 174 165 159 153 143 142
148 145 101 186 28 257 242 187 163 185 219 227 272 278 277 274 268 285 28 356 347 351 338 321 321 281 269 257 233 222 217 212 211 200 198 197 183 183 183 174 161 159 159 154
167 126 137 164 202 310 306 210 154 172 144 232 217 288 312 320 250 149 4 6 3 2 358 333 326 303 258 244 235 218 216 212 209 203 197 197 187 188 183 178 177 171 172 166
159 268 130 116 158 202 238 297 236 236 178 41 187 57 15 31 65 298 357 11 14 16 15 4 336 327 283 254 233 222 217 215 211 206 197 197 185 191 185 185 182 177 174 184
184 182 217 190 209 274 253 252 294 88 193 106 53 30 20 56 80 15 27 22 17 14 12 14 359 342 323 269 241 223 219 221 212 203 196 195 184 190 190 183 185 187 188 189
174 170 194 193 206 245 230 141 174 178 97 87 60 45 50 34 23 20 21 18 14 8 0 0 8 354 337 306 256 230 224 221 210 201 198 192 187 191 188 187 183 180 180 179
206 181 180 179 204 214 138 137 132 135 129 117 95 72 60 43 26 16 10 8 6 4 2 0 354 4 348 332 279 249 230 221 211 203 200 191 189 195 192 196 187 178 180 181
249 177 169 92 229 195 152 141 133 146 132 115 83 53 37 26 15 8 4 359 355 353 352 350 353 347 357 341 311 254 235 225 214 208 202 194 193 196 192 193 192 190 187 188
189 140 164 268 277 144 202 186 166 160 159 153 62 25 16 7 3 354 348 349 345 344 339 340 340 341 343 351 333 280 231 222 215 211 207 198 196 199 195 196 201 199 191 186
195 172 169 208 208 222 202 166 147 181 211 236 321 338 345 343 336 336 337 335 335 335 336 329 329 333 330 337 337 308 240 223 215 213 210 203 199 201 200 200 197 195 195 187